Hourly Data Report for June 10, 2021

WINNIPEG THE FORKS
MANITOBA
Current Station Operator: ECCC - MSC

49°53'18.008" N
97°07'46.007" W
230.00 m
5023262
71579
XWN

Download Data

Hourly Data (June 2021)
Hourly Data Report for June 10, 2021
TIME
LST
Temp Definition
°C
Dew Point Definition
°C
Rel Hum Definition
%
Precip. Amount Definition
mm

Wind Dir Definition
10's deg

Wind Spd Definition
km/h
Visibility Definition
km
Stn Press Definition
kPa
Hmdx Definition


Wind Chill Definition


Weather Definition


00:00 18.7 16.2 85 0.0 33 8   98.68     LegendNANA
01:00 18.3 16.2 87 0.0 31 8   98.69     LegendNANA
02:00 17.6 16.2 91 0.0 34 6   98.66     LegendNANA
03:00 17.5 15.9 90 0.0 36 5   98.63     LegendNANA
04:00 17.3 15.5 89 0.0 33 7   98.72     LegendNANA
05:00 17.1 15.4 90 0.0 35 8   98.73     LegendNANA
06:00 16.9 15.5 91 0.0 34 8   98.68     LegendNANA
07:00 17.2 15.7 91 0.0 35 7   98.69     LegendNANA
08:00 17.3 15.2 87 0.0 36 11   98.72     LegendNANA
09:00 17.5 14.7 83 0.0 3 8   98.68     LegendNANA
10:00 17.5 14.8 84 0.0 1 5   98.67     LegendNANA
11:00 19.3 14.9 76 0.0 5 5   98.63     LegendNANA
12:00 19.4 15.5 78 0.0 36 6   98.66     LegendNANA
13:00 19.4 15.6 79 0.0 36 9   98.61     LegendNANA
14:00 20.5 16.5 78 0.0 1 7   98.55 25   LegendNANA
15:00 20.6 16.3 76 0.0 3 7   98.49 25   LegendNANA
16:00 20.7 16.5 76 0.0 4 6   98.47 26   LegendNANA
17:00 20.8 16.5 77 0.0 4 7   98.41 26   LegendNANA
18:00 20.8 16.7 77 0.0 5 9   98.27 26   LegendNANA
19:00 20.6 16.5 78 0.0 5 8   98.22 26   LegendNANA
20:00 20.0 16.0 78 0.0 5 7   98.28 25   LegendNANA
21:00 19.2 15.4 78 0.0 5 8   98.24     LegendNANA
22:00 18.7 14.8 78 0.0 7 10   98.16     LegendNANA
23:00 18.2 14.5 79 0.0 7 9   98.11     LegendNANA

Notes on Data Quality.

Legend

  • E = Estimated
  • M = Missing
  • NA = Not Available*
  • [empty] = Indicates an unobserved value
Date modified: